Location: Azul
(36.7830°S, 59.8500°W)
Time: 11:58:01
(UTC-03:00)

ISS - Pass Details

Date: 14 August 2019
Orbit: 410 x 421 km, 51.6° (Epoch: 22 August)

Event Time Altitude Azimuth Distance (km) Brightness Sun altitude
Exits shadow 06:41:55 22° 281° (W) 974 -2.5 -12.9°
Maximum altitude 06:42:57 26° 311° (NW) 862 -2.5 -12.7°
Drops below altitude 10° 06:45:48 10° 10° (N) 1,485 -0.7 -12.2°
Sets 06:48:04 0° 23° (NNE) 2,341 0.5 -11.7°
